TimeEDT,TemperatureF,Dew PointF,Humidity,Sea Level PressureIn,VisibilityMPH,Wind Direction,Wind SpeedMPH,Gust SpeedMPH,PrecipitationIn,Events,Conditions,WindDirDegrees,DateUTC
12:15 AM,69.8,64.4,83,30.19,10.0,SSE,3.5,-,N/A,,Clear,160,2012-04-17 04:15:00
12:35 AM,69.8,64.4,83,30.19,10.0,South,3.5,-,N/A,,Clear,180,2012-04-17 04:35:00
12:55 AM,69.8,64.4,83,30.19,10.0,Calm,Calm,-,N/A,,Clear,0,2012-04-17 04:55:00
1:15 AM,69.8,64.4,83,30.19,10.0,Calm,Calm,-,N/A,,Clear,0,2012-04-17 05:15:00
1:35 AM,64.4,62.6,94,30.19,10.0,Calm,Calm,-,N/A,,Clear,0,2012-04-17 05:35:00
1:55 AM,66.2,64.4,94,30.18,10.0,South,3.5,-,N/A,,Clear,190,2012-04-17 05:55:00
2:15 AM,64.4,62.6,94,30.18,10.0,Calm,Calm,-,N/A,,Clear,0,2012-04-17 06:15:00
2:35 AM,66.2,64.4,94,30.18,10.0,Calm,Calm,-,N/A,,Clear,0,2012-04-17 06:35:00
2:55 AM,66.2,64.4,94,30.17,10.0,Calm,Calm,-,N/A,,Clear,0,2012-04-17 06:55:00
3:15 AM,64.4,60.8,88,30.17,2.5,Calm,Calm,-,N/A,,Clear,0,2012-04-17 07:15:00
3:35 AM,62.6,60.8,94,30.17,3.0,Calm,Calm,-,N/A,,Clear,0,2012-04-17 07:35:00
3:55 AM,62.6,60.8,94,30.17,5.0,Calm,Calm,-,N/A,,Clear,0,2012-04-17 07:55:00
4:15 AM,62.6,60.8,94,30.17,0.5,Calm,Calm,-,N/A,,Unknown,0,2012-04-17 08:15:00
4:35 AM,62.6,60.8,94,30.17,0.2,Calm,Calm,-,N/A,,Mostly Cloudy,0,2012-04-17 08:35:00
4:55 AM,60.8,60.8,100,30.17,0.5,Calm,Calm,-,N/A,,Mostly Cloudy,0,2012-04-17 08:55:00
5:15 AM,60.8,59.0,94,30.17,1.0,Calm,Calm,-,N/A,,Mostly Cloudy,0,2012-04-17 09:15:00
5:35 AM,60.8,60.8,100,30.18,1.5,Calm,Calm,-,N/A,,Overcast,0,2012-04-17 09:35:00
5:55 AM,62.6,62.6,100,30.18,10.0,Calm,Calm,-,N/A,,Scattered Clouds,0,2012-04-17 09:55:00
6:15 AM,60.8,60.8,100,30.18,3.0,Calm,Calm,-,N/A,,Mostly Cloudy,0,2012-04-17 10:15:00
6:35 AM,60.8,60.8,100,30.19,1.8,Calm,Calm,-,N/A,,Overcast,0,2012-04-17 10:35:00
6:55 AM,60.8,60.8,100,30.20,4.0,Calm,Calm,-,N/A,,Mostly Cloudy,0,2012-04-17 10:55:00
7:15 AM,60.8,60.8,100,30.20,1.0,Calm,Calm,-,N/A,,Overcast,0,2012-04-17 11:15:00
7:35 AM,62.6,60.8,94,30.21,10.0,Calm,Calm,-,N/A,,Scattered Clouds,0,2012-04-17 11:35:00
7:55 AM,66.2,64.4,94,30.21,10.0,SSE,3.5,-,N/A,,Clear,160,2012-04-17 11:55:00
8:15 AM,69.8,62.6,78,30.21,10.0,South,6.9,-,N/A,,Scattered Clouds,190,2012-04-17 12:15:00
8:35 AM,71.6,62.6,73,30.21,10.0,SSW,4.6,-,N/A,,Clear,210,2012-04-17 12:35:00
8:55 AM,73.4,62.6,69,30.22,10.0,SSW,5.8,-,N/A,,Clear,200,2012-04-17 12:55:00
9:15 AM,73.4,62.6,69,30.22,10.0,SW,6.9,-,N/A,,Clear,220,2012-04-17 13:15:00
9:35 AM,75.2,60.8,61,30.22,10.0,SW,9.2,-,N/A,,Clear,230,2012-04-17 13:35:00
9:55 AM,77.0,60.8,57,30.22,10.0,South,10.4,-,N/A,,Clear,190,2012-04-17 13:55:00
10:15 AM,77.0,59.0,54,30.22,10.0,SW,6.9,-,N/A,,Clear,220,2012-04-17 14:15:00
10:35 AM,78.8,59.0,51,30.22,10.0,South,10.4,-,N/A,,Clear,180,2012-04-17 14:35:00
10:55 AM,78.8,59.0,51,30.22,10.0,SSW,9.2,-,N/A,,Clear,200,2012-04-17 14:55:00
11:15 AM,80.6,59.0,48,30.22,10.0,South,8.1,-,N/A,,Clear,190,2012-04-17 15:15:00
11:35 AM,80.6,57.2,45,30.21,10.0,SSE,8.1,-,N/A,,Clear,160,2012-04-17 15:35:00
11:55 AM,82.4,55.4,39,30.20,10.0,South,8.1,-,N/A,,Scattered Clouds,180,2012-04-17 15:55:00
12:15 PM,80.6,59.0,48,30.20,10.0,SE,11.5,-,N/A,,Scattered Clouds,140,2012-04-17 16:15:00
12:35 PM,80.6,60.8,51,30.19,10.0,SSE,9.2,-,N/A,,Clear,150,2012-04-17 16:35:00
12:55 PM,80.6,60.8,51,30.19,10.0,SE,8.1,-,N/A,,Clear,130,2012-04-17 16:55:00
1:15 PM,80.6,60.8,51,30.18,10.0,ESE,11.5,17.3,N/A,,Clear,120,2012-04-17 17:15:00
1:35 PM,80.6,59.0,48,30.17,10.0,SSE,12.7,17.3,N/A,,Clear,160,2012-04-17 17:35:00
1:55 PM,82.4,55.4,39,30.17,10.0,SSE,10.4,16.1,N/A,,Clear,160,2012-04-17 17:55:00
2:15 PM,82.4,57.2,42,30.16,10.0,SE,12.7,-,N/A,,Clear,140,2012-04-17 18:15:00
2:35 PM,80.6,55.4,42,30.15,10.0,SE,12.7,-,N/A,,Clear,140,2012-04-17 18:35:00
2:55 PM,80.6,53.6,39,30.14,10.0,ESE,11.5,16.1,N/A,,Clear,120,2012-04-17 18:55:00
3:15 PM,82.4,55.4,39,30.14,10.0,SE,10.4,16.1,N/A,,Clear,140,2012-04-17 19:15:00
3:35 PM,80.6,51.8,37,30.14,10.0,SE,10.4,18.4,N/A,,Scattered Clouds,140,2012-04-17 19:35:00
3:55 PM,82.4,51.8,35,30.13,10.0,SSE,12.7,-,N/A,,Clear,160,2012-04-17 19:55:00
4:15 PM,80.6,51.8,37,30.12,10.0,SE,11.5,-,N/A,,Clear,140,2012-04-17 20:15:00
4:35 PM,80.6,55.4,42,30.11,10.0,SSE,11.5,17.3,N/A,,Clear,160,2012-04-17 20:35:00
4:55 PM,80.6,57.2,45,30.11,10.0,SSE,11.5,-,N/A,,Clear,160,2012-04-17 20:55:00
5:15 PM,78.8,57.2,47,30.10,10.0,SE,13.8,19.6,N/A,,Clear,140,2012-04-17 21:15:00
5:35 PM,78.8,57.2,47,30.10,10.0,SE,13.8,18.4,N/A,,Clear,140,2012-04-17 21:35:00
5:55 PM,78.8,57.2,47,30.10,10.0,SE,13.8,19.6,N/A,,Clear,140,2012-04-17 21:55:00
6:15 PM,78.8,59.0,51,30.11,10.0,SE,11.5,-,N/A,,Clear,140,2012-04-17 22:15:00
6:35 PM,77.0,59.0,54,30.10,10.0,SE,9.2,-,N/A,,Clear,140,2012-04-17 22:35:00
6:55 PM,77.0,59.0,54,30.11,10.0,SE,10.4,-,N/A,,Clear,140,2012-04-17 22:55:00
7:15 PM,75.2,60.8,61,30.10,10.0,SSE,9.2,17.3,N/A,,Clear,150,2012-04-17 23:15:00
7:35 PM,73.4,62.6,69,30.10,10.0,SE,8.1,-,N/A,,Clear,140,2012-04-17 23:35:00
7:55 PM,73.4,62.6,69,30.10,10.0,SSE,8.1,-,N/A,,Clear,150,2012-04-17 23:55:00
8:15 PM,73.4,64.4,73,30.10,10.0,SSE,6.9,-,N/A,,Clear,150,2012-04-18 00:15:00
8:35 PM,71.6,62.6,73,30.10,10.0,SE,6.9,-,N/A,,Clear,140,2012-04-18 00:35:00
8:55 PM,71.6,64.4,78,30.11,10.0,SSE,6.9,-,N/A,,Clear,150,2012-04-18 00:55:00
9:15 PM,71.6,64.4,78,30.11,10.0,SSE,8.1,-,N/A,,Clear,150,2012-04-18 01:15:00
9:35 PM,71.6,64.4,78,30.11,10.0,SSE,8.1,-,N/A,,Clear,160,2012-04-18 01:35:00
9:55 PM,71.6,64.4,78,30.12,10.0,SSE,6.9,-,N/A,,Clear,150,2012-04-18 01:55:00
10:15 PM,71.6,62.6,73,30.12,10.0,SSE,4.6,-,N/A,,Clear,160,2012-04-18 02:15:00
10:35 PM,71.6,62.6,73,30.12,10.0,South,6.9,-,N/A,,Clear,170,2012-04-18 02:35:00
10:55 PM,71.6,62.6,73,30.12,10.0,South,6.9,-,N/A,,Clear,180,2012-04-18 02:55:00
11:15 PM,71.6,64.4,78,30.11,10.0,SSE,8.1,-,N/A,,Clear,150,2012-04-18 03:15:00
11:35 PM,71.6,64.4,78,30.11,10.0,SSE,6.9,-,N/A,,Clear,160,2012-04-18 03:35:00
11:55 PM,69.8,64.4,83,30.11,10.0,SSE,5.8,-,N/A,,Clear,160,2012-04-18 03:55:00